When you browse on this site, cookies collect data to enhance your experience and personalize the content and advertising you see.
Visit our Privacy Policy to learn more. By continuing to use the site, you agree to this use of cookies and data.
  • In Deutschland
  • Länderverzeichnis
  • Für 7 Tage
  • Wassertemperatur
  • Satellitenkarten
  • Wetterkarte
  • Widgets
  • user-avatar
    Anmelden

    Stündliche Wetter Kobiel

    Heute, 20 Mai, Montag

    Zeit Temperatur Niederschläge Wind Luftdruck Luftfeuchtigkeit
    00:00 +17°C° 0 mm 4 m/S 746 mmHg 95%
    01:00 +16°C° 0 mm 3 m/S 746 mmHg 96%
    02:00 +16°C° 0.3 mm 3 m/S 745 mmHg 96%
    03:00 +15°C° 0.3 mm 4 m/S 745 mmHg 96%
    04:00 +15°C° 0.3 mm 4 m/S 745 mmHg 97%
    05:00 +17°C° 0 mm 4 m/S 745 mmHg 95%
    06:00 +17°C° 0 mm 5 m/S 745 mmHg 94%
    07:00 +19°C° 0 mm 6 m/S 745 mmHg 92%
    08:00 +19°C° 0.1 mm 6 m/S 745 mmHg 91%
    09:00 +20°C° 0.1 mm 6 m/S 745 mmHg 90%
    10:00 +20°C° 0.1 mm 6 m/S 745 mmHg 89%
    11:00 +22°C° 0 mm 5 m/S 744 mmHg 82%
    12:00 +25°C° 0 mm 5 m/S 744 mmHg 76%
    13:00 +26°C° 0 mm 5 m/S 744 mmHg 69%
    14:00 +25°C° 2.5 mm 5 m/S 744 mmHg 75%
    15:00 +22°C° 2.5 mm 4 m/S 744 mmHg 82%
    16:00 +20°C° 2.5 mm 3 m/S 744 mmHg 88%
    17:00 +20°C° 0.3 mm 3 m/S 744 mmHg 88%
    18:00 +20°C° 0.3 mm 3 m/S 744 mmHg 88%
    19:00 +19°C° 0.3 mm 3 m/S 744 mmHg 88%
    20:00 +19°C° 1.1 mm 3 m/S 744 mmHg 90%
    21:00 +18°C° 1.1 mm 3 m/S 743 mmHg 91%
    22:00 +17°C° 1.1 mm 3 m/S 743 mmHg 93%
    23:00 +17°C° 0.1 mm 3 m/S 743 mmHg 94%

    Morgen, 21 Mai, Dienstag

    Zeit Temperatur Niederschläge Wind Luftdruck Luftfeuchtigkeit
    00:00 +16°C° 0.1 mm 3 m/S 743 mmHg 95%
    01:00 +16°C° 0.1 mm 3 m/S 743 mmHg 96%
    02:00 +16°C° 0.1 mm 3 m/S 743 mmHg 96%
    03:00 +16°C° 0.1 mm 3 m/S 743 mmHg 96%
    04:00 +16°C° 0.1 mm 3 m/S 743 mmHg 96%
    05:00 +17°C° 0.4 mm 3 m/S 743 mmHg 95%
    06:00 +18°C° 0.4 mm 3 m/S 743 mmHg 93%
    07:00 +18°C° 0.4 mm 3 m/S 743 mmHg 92%
    08:00 +19°C° 0.2 mm 4 m/S 743 mmHg 89%
    09:00 +20°C° 0.2 mm 4 m/S 743 mmHg 86%
    10:00 +20°C° 0.2 mm 4 m/S 743 mmHg 83%
    11:00 +20°C° 0.7 mm 4 m/S 743 mmHg 82%
    12:00 +20°C° 0.7 mm 5 m/S 743 mmHg 82%
    13:00 +20°C° 0.7 mm 5 m/S 743 mmHg 81%
    14:00 +21°C° 0.6 mm 5 m/S 743 mmHg 80%
    15:00 +21°C° 0.6 mm 5 m/S 742 mmHg 79%
    16:00 +21°C° 0.6 mm 5 m/S 742 mmHg 79%
    17:00 +20°C° 0.2 mm 5 m/S 742 mmHg 82%
    18:00 +17°C° 0.2 mm 5 m/S 742 mmHg 85%
    19:00 +17°C° 0.2 mm 4 m/S 743 mmHg 88%
    20:00 +15°C° 0 mm 4 m/S 743 mmHg 90%
    21:00 +15°C° 0 mm 5 m/S 743 mmHg 92%
    22:00 +14°C° 0 mm 5 m/S 743 mmHg 94%
    23:00 +14°C° 0 mm 4 m/S 743 mmHg 93%

    übermorgen, 22 Mai, Mittwoch

    Zeit Temperatur Niederschläge Wind Luftdruck Luftfeuchtigkeit
    00:00 +14°C° 0 mm 4 m/S 743 mmHg 93%
    01:00 +14°C° 0 mm 4 m/S 744 mmHg 92%
    02:00 +14°C° 0 mm 4 m/S 744 mmHg 93%
    03:00 +13°C° 0 mm 4 m/S 744 mmHg 94%
    04:00 +13°C° 0 mm 3 m/S 744 mmHg 95%
    05:00 +14°C° 0 mm 4 m/S 744 mmHg 91%
    06:00 +15°C° 0 mm 4 m/S 744 mmHg 88%
    07:00 +17°C° 0 mm 4 m/S 744 mmHg 84%
    08:00 +18°C° 0.7 mm 4 m/S 744 mmHg 79%
    09:00 +19°C° 0.7 mm 5 m/S 744 mmHg 74%
    10:00 +20°C° 0.7 mm 5 m/S 744 mmHg 69%
    11:00 +21°C° 0.9 mm 5 m/S 744 mmHg 69%
    12:00 +21°C° 0.9 mm 4 m/S 744 mmHg 68%
    13:00 +22°C° 0.9 mm 4 m/S 744 mmHg 67%
    14:00 +21°C° 0.9 mm 4 m/S 744 mmHg 68%
    15:00 +21°C° 0.9 mm 3 m/S 744 mmHg 70%
    16:00 +21°C° 0.9 mm 3 m/S 744 mmHg 71%
    17:00 +20°C° 0.2 mm 3 m/S 744 mmHg 76%
    18:00 +19°C° 0.2 mm 3 m/S 744 mmHg 81%
    19:00 +18°C° 0.2 mm 2 m/S 744 mmHg 86%
    20:00 +16°C° 0 mm 2 m/S 744 mmHg 88%
    21:00 +15°C° 0 mm 2 m/S 744 mmHg 90%
    22:00 +14°C° 0 mm 2 m/S 745 mmHg 92%
    23:00 +14°C° 0 mm 2 m/S 745 mmHg 93%

    23 Mai, Donnerstag

    Zeit Temperatur Niederschläge Wind Luftdruck Luftfeuchtigkeit
    00:00 +14°C° 0 mm 2 m/S 745 mmHg 94%
    01:00 +13°C° 0 mm 2 m/S 745 mmHg 95%
    02:00 +13°C° 0 mm 2 m/S 745 mmHg 96%
    03:00 +13°C° 0 mm 2 m/S 745 mmHg 96%
    04:00 +13°C° 0 mm 1 m/S 745 mmHg 97%
    05:00 +14°C° 0 mm 1 m/S 745 mmHg 93%
    06:00 +15°C° 0 mm 2 m/S 746 mmHg 90%
    07:00 +17°C° 0 mm 2 m/S 746 mmHg 87%
    08:00 +17°C° 0.5 mm 2 m/S 746 mmHg 85%
    09:00 +18°C° 0.5 mm 2 m/S 747 mmHg 83%
    10:00 +19°C° 0.5 mm 2 m/S 747 mmHg 81%
    11:00 +18°C° 1.7 mm 3 m/S 747 mmHg 82%
    12:00 +17°C° 1.7 mm 5 m/S 747 mmHg 83%
    13:00 +17°C° 1.7 mm 6 m/S 748 mmHg 84%
    14:00 +16°C° 0.5 mm 6 m/S 748 mmHg 86%
    15:00 +15°C° 0.5 mm 7 m/S 748 mmHg 87%
    16:00 +14°C° 0.5 mm 7 m/S 748 mmHg 88%
    17:00 +13°C° 0 mm 6 m/S 748 mmHg 87%
    18:00 +13°C° 0 mm 6 m/S 748 mmHg 86%
    19:00 +11°C° 0 mm 6 m/S 749 mmHg 85%
    20:00 +11°C° 0 mm 6 m/S 749 mmHg 83%
    21:00 +10°C° 0 mm 5 m/S 749 mmHg 81%
    22:00 +10°C° 0 mm 5 m/S 749 mmHg 79%
    23:00 +9°C° 0 mm 5 m/S 750 mmHg 79%

    24 Mai, Freitag

    Zeit Temperatur Niederschläge Wind Luftdruck Luftfeuchtigkeit
    00:00 +9°C° 0 mm 5 m/S 750 mmHg 78%
    01:00 +8°C° 0 mm 4 m/S 750 mmHg 78%
    02:00 +8°C° 0 mm 4 m/S 750 mmHg 80%
    03:00 +8°C° 0 mm 4 m/S 750 mmHg 82%
    04:00 +9°C° 0 mm 3 m/S 749 mmHg 85%
    05:00 +9°C° 0 mm 3 m/S 749 mmHg 83%
    06:00 +10°C° 0 mm 3 m/S 749 mmHg 81%
    07:00 +11°C° 0 mm 4 m/S 749 mmHg 79%
    08:00 +13°C° 0 mm 4 m/S 749 mmHg 73%
    09:00 +15°C° 0 mm 4 m/S 749 mmHg 67%
    10:00 +17°C° 0 mm 4 m/S 749 mmHg 61%
    11:00 +18°C° 0 mm 3 m/S 749 mmHg 58%
    12:00 +19°C° 0 mm 3 m/S 748 mmHg 55%
    13:00 +20°C° 0 mm 3 m/S 748 mmHg 51%
    14:00 +20°C° 0 mm 3 m/S 748 mmHg 52%
    15:00 +20°C° 0 mm 3 m/S 747 mmHg 52%
    16:00 +20°C° 0 mm 2 m/S 747 mmHg 52%
    17:00 +19°C° 0 mm 2 m/S 747 mmHg 58%
    18:00 +17°C° 0 mm 2 m/S 746 mmHg 64%
    19:00 +16°C° 0 mm 2 m/S 746 mmHg 69%
    20:00 +15°C° 0 mm 2 m/S 746 mmHg 74%
    21:00 +14°C° 0 mm 2 m/S 746 mmHg 79%
    22:00 +13°C° 0 mm 2 m/S 746 mmHg 84%
    23:00 +12°C° 0 mm 2 m/S 746 mmHg 86%

    25 Mai, Samstag

    Zeit Temperatur Niederschläge Wind Luftdruck Luftfeuchtigkeit
    00:00 +12°C° 0 mm 2 m/S 746 mmHg 88%
    01:00 +10°C° 0 mm 2 m/S 746 mmHg 91%
    02:00 +10°C° 0 mm 2 m/S 746 mmHg 91%
    03:00 +9°C° 0 mm 2 m/S 746 mmHg 90%
    04:00 +9°C° 0 mm 2 m/S 746 mmHg 90%
    05:00 +12°C° 0 mm 2 m/S 746 mmHg 84%
    06:00 +14°C° 0 mm 2 m/S 746 mmHg 78%
    07:00 +15°C° 0 mm 2 m/S 746 mmHg 71%
    08:00 +17°C° 0 mm 2 m/S 746 mmHg 66%
    09:00 +18°C° 0 mm 2 m/S 746 mmHg 60%
    10:00 +20°C° 0 mm 2 m/S 746 mmHg 55%
    11:00 +20°C° 0 mm 2 m/S 746 mmHg 54%
    12:00 +20°C° 0 mm 2 m/S 746 mmHg 54%
    13:00 +20°C° 0 mm 2 m/S 746 mmHg 53%
    14:00 +20°C° 0 mm 2 m/S 746 mmHg 53%
    15:00 +21°C° 0 mm 3 m/S 746 mmHg 53%
    16:00 +21°C° 0 mm 3 m/S 745 mmHg 53%
    17:00 +19°C° 0 mm 2 m/S 745 mmHg 58%
    18:00 +18°C° 0 mm 2 m/S 746 mmHg 62%
    19:00 +18°C° 0 mm 1 m/S 746 mmHg 67%
    20:00 +16°C° 0 mm 1 m/S 746 mmHg 69%
    21:00 +15°C° 0 mm 1 m/S 746 mmHg 72%
    22:00 +14°C° 0 mm 1 m/S 746 mmHg 74%
    23:00 +13°C° 0 mm 1 m/S 747 mmHg 77%
    Mehr zeigen